Time,TemperatureF,DewpointF,PressureIn,WindDirection,WindDirectionDegrees,WindSpeedMPH,WindSpeedGustMPH,Humidity,HourlyPrecipIn,Conditions,Clouds,dailyrainin,SoftwareType,DateUTC
2013-10-15 00:02:00,61.0,31.0,-100.00,North,355,5.0,7.0,32,0.00,,,0.00,,2013-10-15 07:02:00,
2013-10-15 00:12:00,61.0,31.0,-100.00,North,355,5.0,7.0,32,0.00,,,0.00,,2013-10-15 07:12:00,
2013-10-15 00:42:00,62.0,30.0,-100.00,NE,39,3.0,6.0,30,0.00,,,0.00,,2013-10-15 07:42:00,
2013-10-15 00:52:00,62.0,30.0,-100.00,NE,39,3.0,6.0,30,0.00,,,0.00,,2013-10-15 07:52:00,
2013-10-15 01:02:00,62.0,30.0,-100.00,NE,39,3.0,6.0,30,0.00,,,0.00,,2013-10-15 08:02:00,
2013-10-15 01:12:00,62.0,30.0,-100.00,NE,39,3.0,6.0,30,0.00,,,0.00,,2013-10-15 08:12:00,
2013-10-15 01:42:00,59.0,28.0,-100.00,ENE,76,1.0,2.0,31,0.00,,,0.00,,2013-10-15 08:42:00,
2013-10-15 01:52:00,59.0,28.0,-100.00,ENE,76,1.0,2.0,31,0.00,,,0.00,,2013-10-15 08:52:00,
2013-10-15 02:02:00,59.0,28.0,-100.00,ENE,76,1.0,2.0,31,0.00,,,0.00,,2013-10-15 09:02:00,
2013-10-15 02:12:00,59.0,28.0,-100.00,ENE,76,1.0,2.0,31,0.00,,,0.00,,2013-10-15 09:12:00,
2013-10-15 02:43:00,60.0,30.0,-100.00,SSE,162,1.0,3.0,32,0.00,,,0.00,,2013-10-15 09:43:00,
2013-10-15 02:53:00,60.0,30.0,-100.00,SSE,162,1.0,3.0,32,0.00,,,0.00,,2013-10-15 09:53:00,
2013-10-15 03:03:00,60.0,30.0,-100.00,SSE,162,1.0,3.0,32,0.00,,,0.00,,2013-10-15 10:03:00,
2013-10-15 03:12:00,60.0,30.0,-100.00,SSE,162,1.0,3.0,32,0.00,,,0.00,,2013-10-15 10:12:00,
2013-10-15 03:43:00,61.0,29.0,-100.00,ENE,62,3.0,3.0,30,0.00,,,0.00,,2013-10-15 10:43:00,
2013-10-15 03:53:00,61.0,29.0,-100.00,ENE,62,3.0,3.0,30,0.00,,,0.00,,2013-10-15 10:53:00,
2013-10-15 04:02:00,61.0,29.0,-100.00,ENE,62,3.0,3.0,30,0.00,,,0.00,,2013-10-15 11:02:00,
2013-10-15 04:11:00,61.0,29.0,-100.00,ENE,62,3.0,3.0,30,0.00,,,0.00,,2013-10-15 11:11:00,
2013-10-15 04:42:00,58.0,29.0,-100.00,NNE,23,3.0,4.0,33,0.00,,,0.00,,2013-10-15 11:42:00,
2013-10-15 04:52:00,58.0,29.0,-100.00,NNE,23,3.0,4.0,33,0.00,,,0.00,,2013-10-15 11:52:00,
2013-10-15 05:01:00,58.0,29.0,-100.00,NNE,23,3.0,4.0,33,0.00,,,0.00,,2013-10-15 12:01:00,
2013-10-15 05:12:00,58.0,29.0,-100.00,NNE,23,3.0,4.0,33,0.00,,,0.00,,2013-10-15 12:12:00,
2013-10-15 05:42:00,61.0,29.0,-100.00,NE,54,12.0,18.0,29,0.00,,,0.00,,2013-10-15 12:42:00,
2013-10-15 05:52:00,61.0,29.0,-100.00,NE,54,12.0,18.0,29,0.00,,,0.00,,2013-10-15 12:52:00,
2013-10-15 06:01:00,61.0,29.0,-100.00,NE,54,12.0,18.0,29,0.00,,,0.00,,2013-10-15 13:01:00,
2013-10-15 06:11:00,61.0,29.0,-100.00,NE,54,12.0,18.0,29,0.00,,,0.00,,2013-10-15 13:11:00,
2013-10-15 06:42:00,61.0,27.0,-100.00,NE,56,16.0,21.0,27,0.00,,,0.00,,2013-10-15 13:42:00,
2013-10-15 06:52:00,61.0,27.0,-100.00,NE,56,16.0,21.0,27,0.00,,,0.00,,2013-10-15 13:52:00,
2013-10-15 07:02:00,61.0,27.0,-100.00,NE,56,16.0,21.0,27,0.00,,,0.00,,2013-10-15 14:02:00,
2013-10-15 07:42:00,60.0,27.0,-100.00,NE,52,15.0,22.0,28,0.00,,,0.00,,2013-10-15 14:42:00,
2013-10-15 07:52:00,60.0,27.0,-100.00,NE,52,15.0,22.0,28,0.00,,,0.00,,2013-10-15 14:52:00,
2013-10-15 08:01:00,60.0,27.0,-100.00,NE,52,15.0,22.0,28,0.00,,,0.00,,2013-10-15 15:01:00,
2013-10-15 08:11:00,60.0,27.0,-100.00,NE,52,15.0,22.0,28,0.00,,,0.00,,2013-10-15 15:11:00,
2013-10-15 08:44:00,60.0,27.0,-100.00,NE,48,18.0,25.0,28,0.00,,,0.00,,2013-10-15 15:44:00,
2013-10-15 08:53:00,60.0,27.0,-100.00,NE,48,18.0,25.0,28,0.00,,,0.00,,2013-10-15 15:53:00,
2013-10-15 09:03:00,60.0,27.0,-100.00,NE,48,18.0,25.0,28,0.00,,,0.00,,2013-10-15 16:03:00,
2013-10-15 09:12:00,60.0,27.0,-100.00,NE,48,18.0,25.0,28,0.00,,,0.00,,2013-10-15 16:12:00,
2013-10-15 09:43:00,61.0,28.0,-100.00,NE,52,15.0,27.0,28,0.00,,,0.00,,2013-10-15 16:43:00,
2013-10-15 09:53:00,61.0,28.0,-100.00,NE,52,15.0,27.0,28,0.00,,,0.00,,2013-10-15 16:53:00,
2013-10-15 10:02:00,61.0,28.0,-100.00,NE,52,15.0,27.0,28,0.00,,,0.00,,2013-10-15 17:02:00,
2013-10-15 10:12:00,61.0,28.0,-100.00,NE,52,15.0,27.0,28,0.00,,,0.00,,2013-10-15 17:12:00,
2013-10-15 10:42:00,63.0,29.0,-100.00,NE,56,15.0,30.0,27,0.00,,,0.00,,2013-10-15 17:42:00,
2013-10-15 10:53:00,63.0,29.0,-100.00,NE,56,15.0,30.0,27,0.00,,,0.00,,2013-10-15 17:53:00,
2013-10-15 11:02:00,63.0,29.0,-100.00,NE,56,15.0,30.0,27,0.00,,,0.00,,2013-10-15 18:02:00,
2013-10-15 11:12:00,63.0,29.0,-100.00,NE,56,15.0,30.0,27,0.00,,,0.00,,2013-10-15 18:12:00,
2013-10-15 11:42:00,65.0,27.0,-100.00,NE,36,19.0,29.0,24,0.00,,,0.00,,2013-10-15 18:42:00,
2013-10-15 11:52:00,65.0,27.0,-100.00,NE,36,19.0,29.0,24,0.00,,,0.00,,2013-10-15 18:52:00,
2013-10-15 12:01:00,65.0,27.0,-100.00,NE,36,19.0,29.0,24,0.00,,,0.00,,2013-10-15 19:01:00,
2013-10-15 12:11:00,65.0,27.0,-100.00,NE,36,19.0,29.0,24,0.00,,,0.00,,2013-10-15 19:11:00,
2013-10-15 12:42:00,68.0,28.0,-100.00,NNE,33,19.0,34.0,22,0.00,,,0.00,,2013-10-15 19:42:00,
2013-10-15 12:52:00,68.0,28.0,-100.00,NNE,33,19.0,34.0,22,0.00,,,0.00,,2013-10-15 19:52:00,
2013-10-15 13:03:00,68.0,28.0,-100.00,NNE,33,19.0,34.0,22,0.00,,,0.00,,2013-10-15 20:03:00,
2013-10-15 13:12:00,68.0,28.0,-100.00,NNE,33,19.0,34.0,22,0.00,,,0.00,,2013-10-15 20:12:00,
2013-10-15 13:42:00,70.0,28.0,-100.00,NE,53,17.0,29.0,21,0.00,,,0.00,,2013-10-15 20:42:00,
2013-10-15 13:52:00,70.0,28.0,-100.00,NE,53,17.0,29.0,21,0.00,,,0.00,,2013-10-15 20:52:00,
2013-10-15 14:02:00,70.0,28.0,-100.00,NE,53,17.0,29.0,21,0.00,,,0.00,,2013-10-15 21:02:00,
2013-10-15 14:12:00,70.0,28.0,-100.00,NE,53,17.0,29.0,21,0.00,,,0.00,,2013-10-15 21:12:00,
2013-10-15 14:44:00,73.0,28.0,-100.00,NNE,30,12.0,25.0,19,0.00,,,0.00,,2013-10-15 21:44:00,
2013-10-15 14:54:00,73.0,28.0,-100.00,NNE,30,12.0,25.0,19,0.00,,,0.00,,2013-10-15 21:54:00,
2013-10-15 15:04:00,73.0,28.0,-100.00,NNE,30,12.0,25.0,19,0.00,,,0.00,,2013-10-15 22:04:00,
2013-10-15 15:13:00,73.0,28.0,-100.00,NNE,30,12.0,25.0,19,0.00,,,0.00,,2013-10-15 22:13:00,
2013-10-15 15:43:00,73.0,30.0,-100.00,NNE,19,13.0,27.0,20,0.00,,,0.00,,2013-10-15 22:43:00,
2013-10-15 15:53:00,73.0,30.0,-100.00,NNE,19,13.0,27.0,20,0.00,,,0.00,,2013-10-15 22:53:00,
2013-10-15 16:03:00,73.0,30.0,-100.00,NNE,19,13.0,27.0,20,0.00,,,0.00,,2013-10-15 23:03:00,
2013-10-15 16:12:00,73.0,30.0,-100.00,NNE,19,13.0,27.0,20,0.00,,,0.00,,2013-10-15 23:12:00,
2013-10-15 16:43:00,73.0,30.0,-100.00,North,5,13.0,23.0,20,0.00,,,0.00,,2013-10-15 23:43:00,
2013-10-15 16:52:00,73.0,30.0,-100.00,North,5,13.0,23.0,20,0.00,,,0.00,,2013-10-15 23:52:00,
2013-10-15 17:01:00,73.0,30.0,-100.00,North,5,13.0,23.0,20,0.00,,,0.00,,2013-10-16 00:01:00,
2013-10-15 17:12:00,73.0,30.0,-100.00,North,5,13.0,23.0,20,0.00,,,0.00,,2013-10-16 00:12:00,
2013-10-15 17:42:00,73.0,30.0,-100.00,NNE,17,11.0,22.0,20,0.00,,,0.00,,2013-10-16 00:42:00,
2013-10-15 17:52:00,73.0,30.0,-100.00,NNE,17,11.0,22.0,20,0.00,,,0.00,,2013-10-16 00:52:00,
2013-10-15 18:02:00,73.0,30.0,-100.00,NNE,17,11.0,22.0,20,0.00,,,0.00,,2013-10-16 01:02:00,
2013-10-15 18:11:00,73.0,30.0,-100.00,NNE,17,11.0,22.0,20,0.00,,,0.00,,2013-10-16 01:11:00,
2013-10-15 18:42:00,71.0,29.0,-100.00,NE,44,14.0,23.0,21,0.00,,,0.00,,2013-10-16 01:42:00,
2013-10-15 18:52:00,71.0,29.0,-100.00,NE,44,14.0,23.0,21,0.00,,,0.00,,2013-10-16 01:52:00,
2013-10-15 19:02:00,71.0,29.0,-100.00,NE,44,14.0,23.0,21,0.00,,,0.00,,2013-10-16 02:02:00,
2013-10-15 19:12:00,71.0,29.0,-100.00,NE,44,14.0,23.0,21,0.00,,,0.00,,2013-10-16 02:12:00,
2013-10-15 19:42:00,69.0,29.0,-100.00,NE,54,14.0,20.0,22,0.00,,,0.00,,2013-10-16 02:42:00,
2013-10-15 19:52:00,69.0,29.0,-100.00,NE,54,14.0,20.0,22,0.00,,,0.00,,2013-10-16 02:52:00,
2013-10-15 20:02:00,69.0,29.0,-100.00,NE,54,14.0,20.0,22,0.00,,,0.00,,2013-10-16 03:02:00,
2013-10-15 20:11:00,69.0,29.0,-100.00,NE,54,14.0,20.0,22,0.00,,,0.00,,2013-10-16 03:11:00,
2013-10-15 20:45:00,69.0,27.0,-100.00,ENE,71,13.0,21.0,21,0.00,,,0.00,,2013-10-16 03:45:00,
2013-10-15 20:55:00,69.0,27.0,-100.00,ENE,71,13.0,21.0,21,0.00,,,0.00,,2013-10-16 03:55:00,
2013-10-15 21:04:00,69.0,27.0,-100.00,ENE,71,13.0,21.0,21,0.00,,,0.00,,2013-10-16 04:04:00,
2013-10-15 21:13:00,69.0,27.0,-100.00,ENE,71,13.0,21.0,21,0.00,,,0.00,,2013-10-16 04:13:00,
2013-10-15 21:43:00,69.0,27.0,-100.00,East,84,11.0,19.0,21,0.00,,,0.00,,2013-10-16 04:43:00,
2013-10-15 21:54:00,69.0,27.0,-100.00,East,84,11.0,19.0,21,0.00,,,0.00,,2013-10-16 04:54:00,
2013-10-15 22:04:00,69.0,27.0,-100.00,East,84,11.0,19.0,21,0.00,,,0.00,,2013-10-16 05:04:00,
2013-10-15 22:13:00,69.0,27.0,-100.00,East,84,11.0,19.0,21,0.00,,,0.00,,2013-10-16 05:13:00,
2013-10-15 22:43:00,69.0,27.0,-100.00,ENE,67,10.0,15.0,21,0.00,,,0.00,,2013-10-16 05:43:00,
2013-10-15 22:53:00,69.0,27.0,-100.00,ENE,67,10.0,15.0,21,0.00,,,0.00,,2013-10-16 05:53:00,
2013-10-15 23:02:00,69.0,27.0,-100.00,ENE,67,10.0,15.0,21,0.00,,,0.00,,2013-10-16 06:02:00,
2013-10-15 23:12:00,69.0,27.0,-100.00,ENE,67,10.0,15.0,21,0.00,,,0.00,,2013-10-16 06:12:00,
2013-10-15 23:43:00,67.0,25.0,-100.00,East,82,5.0,14.0,20,0.00,,,0.00,,2013-10-16 06:43:00,
2013-10-15 23:52:00,67.0,25.0,-100.00,East,82,5.0,14.0,20,0.00,,,0.00,,2013-10-16 06:52:00,